User: anonymous   Login
Location: ?
(35.4214°N, 139.3011°E)
Time: 22:33:41
(UTC+00:00)
Language:

Cosmos 2074 Rocket - Orbit

View from above orbital plane
View from above orbital plane
View from above satellite
View from above satellite

Ground track
Ground track

The orbit data is extracted from the following two-line orbital elements,

1 20578U 90036B   20269.90254275 +.00000035 +00000-0 +20384-4 0  9992
2 20578 082.9471 191.4606 0011576 226.8636 199.0944 13.76388623528317
Epoch (UTC): 25 September 2020 21:39:39
Eccentricity: 0.0011576
inclination: 82.9471°
perigee height: 968 km
apogee height: 985 km
right ascension of ascending node: 191.4606°
argument of perigee: 226.8636°
revolutions per day: 13.76388623
mean anomaly at epoch: 199.0944°
orbit number at epoch: 52831

The dashed part of the orbit path shows where the satellite is in the earth's shadow,  

DLR